Location: Bapaume
(50.1042°N, 2.8523°E)
Time: 01:09:08
(UTC+00:00)

Daily predictions for brighter satellites

Satellite Brightness Start Highest point End
(mag) Time Altitude Azimuth Time Altitude Azimuth Time Altitude Azimuth
Cosmos 2263 Rocket 4.3 03:01:26 22° ENE 03:01:26 22° ENE 03:04:26 10° NE
ATLAS 3B R/B 3.4 03:30:35 46° NNE 03:30:38 46° NE 03:37:26 10° ESE
Lacrosse 4 Rocket 4.4 03:38:10 12° ESE 03:38:10 12° ESE 03:38:34 10° SE
ALOS 3.8 03:49:16 10° NNE 03:53:16 34° E 03:53:16 34° E
Cosmos 2227 Rocket 4.2 03:57:13 17° N 03:57:13 17° N 03:58:40 10° NNE
Cosmos 2344 4.4 03:53:01 39° NNW 03:56:54 66° NE 04:09:02 10° ESE
NOSS 3-2 (C) 4.2 04:00:08 56° SSW 04:00:08 56° SSW 04:07:10 10° SSE
CENTAUR R/B 3.2 04:01:35 60° SSW 04:01:35 60° SSW 04:09:28 10° SSE
NOSS 3-4 (A) 4.0 04:00:50 47° SSE 04:01:48 51° ESE 04:07:54 10° NE
NOSS 3-4 (C) 4.0 04:00:54 46° SSE 04:01:57 51° ESE 04:08:02 10° NE
SL-4 R/B 3.9 04:15:02 26° ENE 04:15:02 26° ENE 04:16:47 10° ENE
Cosmos 1782 4.4 04:16:34 34° E 04:16:34 34° E 04:19:42 10° SE
Cosmos 1680 Rocket 3.9 04:20:03 55° NNE 04:20:51 62° ENE 04:26:08 10° SE
ATLAS 2AS CENTAUR R/B 3.4 04:15:31 19° SSW 04:21:26 61° ESE 04:29:08 10° NE
Cosmos 2297 Rocket 4.2 04:30:30 16° N 04:30:30 16° N 04:32:14 10° N
ATLAS 5 CENTAUR R/B 3.5 04:31:19 25° NNE 04:31:19 25° NNE 04:32:26 10° NE
ATLAS CENTAUR R/B 2.4 04:32:06 40° E 04:32:06 40° E 04:35:03 10° ESE
Lacrosse 5 2.5 04:32:03 43° S 04:33:09 51° SE 04:38:04 10° ENE
ADEOS 3.8 04:28:16 10° NNE 04:33:32 70° ESE 04:38:43 10° S
Cosmos 1328 Rocket 4.1 04:35:39 51° SSE 04:35:39 51° SSE 04:39:02 10° SSE
Cosmos 2112 Rocket 4.1 04:38:53 43° NNW 04:40:39 76° ENE 04:46:01 10° SSE
Gbstr 26 Del rocket 3.7 04:43:34 39° SSE 04:43:34 39° SSE 04:46:14 10° SE
Cosmos 2263 Rocket 2.1 04:43:11 64° WNW 04:43:21 64° WNW 04:49:03 10° NNE
SJ 16-02 1.2 04:45:52 87° ENE 04:45:52 87° ENE 04:50:17 10° NNE
Meteor 1-26 Rocket 4.1 04:48:59 28° NNW 04:52:11 72° W 04:57:46 10° S
Cosmos 1898 Rocket 4.4 04:48:18 10° S 04:53:26 51° ESE 04:58:36 10° NNE
FALCON 9 DEB 4.3 04:56:35 36° SE 04:56:35 36° SE 04:59:27 10° ENE
FALCON 9 DEB 4.2 04:56:45 38° SE 04:56:45 38° SE 04:59:36 10° ENE
Cosmos 1766 Rocket 3.9 04:58:04 49° NNW 04:58:04 49° NNW 05:01:30 10° N
FENGYUN 3A 3.5 04:53:00 10° N 04:58:24 68° WNW 05:03:45 10° SSW
Cosmos 2082 Rocket 4.3 04:58:18 10° N 05:02:18 19° NE 05:06:18 10° E
Cosmos 1408 Rocket 3.6 04:58:33 10° S 05:03:01 84° ESE 05:07:30 10° N
Cosmos 2181 Rocket 3.9 04:57:10 10° NNW 05:03:18 62° W 05:09:20 10° S
USA 307 3.3 05:05:08 47° NNW 05:05:37 50° N 05:09:51 10° E
COSMO-SKYMED 1 2.4 05:02:15 10° S 05:06:35 73° WSW 05:07:59 42° NNW
Cosmos 1709 Rocket 4.1 05:01:41 10° SSW 05:07:53 52° WNW 05:14:08 10° N
Cosmos 1937 Rocket 4.3 05:05:31 10° S 05:10:30 52° ESE 05:15:33 10° NNE
USA 308 3.3 05:11:14 44° NNW 05:12:00 50° N 05:16:13 10° E
Lacrosse 4 Rocket 3.2 05:14:32 20° SSW 05:14:32 20° SSW 05:16:23 10° SSW
Cosmos 1833 Rocket 4.3 05:08:13 10° NNW 05:13:07 29° NE 05:18:00 10° ESE
Meteor 2-3 Rocket 3.7 05:09:26 10° SSW 05:15:07 61° WNW 05:20:52 10° N
CZ-4C R/B 2.3 05:11:05 11° SSW 05:15:56 73° SE 05:22:00 10° NE
MOS 1 Rocket 3.8 05:12:13 10° SSE 05:17:01 65° ENE 05:22:10 10° N
CZ-4B R/B 3.1 05:12:31 10° NNE 05:17:04 83° E 05:21:29 10° SSW
FALCON 9 DEB 3.6 05:18:32 42° SSW 05:19:14 52° SSE 05:22:24 10° ENE
Cosmos 1689 Rocket 3.5 05:16:44 10° S 05:18:12 27° S 05:18:12 27° S
Meteor 1-10 Rocket 4.4 05:14:08 10° N 05:19:43 74° ENE 05:25:19 10° SSE
ATLAS 3B R/B 2.8 05:17:52 28° NW 05:21:37 61° SW 05:28:40 10° SSE
COSMOS 2406 4.4 05:18:03 10° NNW 05:23:23 39° NE 05:28:46 10° ESE
SAR-Lupe-4 4.3 05:20:02 10° S 05:22:38 35° SW 05:22:38 35° SW
Aureole 2 Rocket 4.2 05:22:15 10° SSE 05:24:22 24° ESE 05:26:32 10° NE
YAOGAN 6 4.2 05:24:28 10° NNE 05:27:43 35° E 05:30:57 10° SSE
Cosmos 1862 3.6 05:23:45 10° S 05:27:46 68° E 05:31:49 10° NNE
Genesis I 3.4 05:24:54 10° SSW 05:28:40 68° SE 05:32:31 10° NE
deb Chang Zheng 4 3.7 05:26:38 10° N 05:30:50 48° WNW 05:35:02 10° SW
ALOS 2.9 05:26:45 10° N 05:30:56 33° WNW 05:31:45 31° W
Cosmos 990 Rocket 3.9 05:30:52 10° SSW 05:36:05 68° WNW 05:41:22 10° NNE
PSLV R/B 4.3 05:32:46 10° NNE 05:36:38 59° E 05:40:22 10° S
Cosmos 2074 Rocket 3.9 05:31:34 10° SSW 05:37:45 73° W 05:43:59 10° N
METEOR-M 4.5 05:33:24 10° N 05:38:23 41° WNW 05:43:21 10° SW
ASTRO F (AKARI) 4.3 05:35:32 10° NNE 05:38:38 76° ESE 05:41:46 10° S
Cosmos 2227 Rocket 4.2 05:39:03 11° NNW 05:39:34 12° NNW 05:41:28 10° N
Meteor 1-31 Rocket 3.5 05:37:11 10° N 05:40:29 31° WNW 05:40:29 31° WNW
USA 305 3.2 05:38:55 29° NW 05:40:54 56° N 05:45:09 10° E
BREEZE M DEB (TANK) 4.3 05:34:51 10° SW 05:41:38 31° SSE 05:44:24 10° E
Cosmos 405 Rocket 2.6 05:39:51 10° S 05:43:34 87° E 05:47:20 10° NNE
Cosmos 1812 2.7 05:42:51 13° NNW 05:46:15 60° W 05:50:02 10° S
EO 1 Delta rocket 3.9 05:42:58 10° S 05:47:53 60° W 05:52:28 10° NNW
Cosmos 2228 Rocket 3.0 05:44:22 10° NNW 05:48:46 63° W 05:53:06 10° S
Cosmos 1515 Rocket 4.3 05:46:48 20° NW 05:49:11 32° W 05:53:08 10° SSW
USA 306 3.2 05:47:01 25° WNW 05:49:22 58° NNE 05:53:37 10° E
CENTAUR R/B 4.4 05:48:50 17° W 05:50:23 18° WSW 05:55:37 10° SW
Cosmos 1782 4.0 05:52:14 22° W 05:52:14 22° W 05:55:11 10° SW
SL-4 R/B 1.8 05:50:37 26° WNW 05:52:41 71° N 05:56:21 10° E
NOSS 3-4 (A) 3.8 05:48:19 17° WSW 05:52:48 46° NNW 05:59:06 10° NE
NOSS 3-4 (C) 3.8 05:48:24 17° WSW 05:52:56 47° NNW 05:59:15 10° NE
Cosmos 2184 Rocket 4.1 05:49:07 10° SSW 05:55:20 58° WNW 06:01:40 10° N
USA-17 4.2 05:52:04 10° SW 05:55:39 90° SE 05:58:44 10° NE
USA 234 4.3 05:51:47 10° ENE 05:58:04 47° SE 06:04:20 10° SSW
FALCON 9 DEB 2.8 05:56:58 20° WSW 05:59:02 84° NNW 06:02:15 10° ENE
Cosmos 1844 Rocket 2.6 05:56:05 10° SW 06:01:43 68° WNW 06:07:25 10° NNE
FALCON 9 DEB 3.3 05:59:52 23° WNW 06:01:54 64° NNE 06:05:21 10° E
Cosmos 1707 Rocket 3.6 06:01:27 10° N 06:05:49 79° E 06:10:08 10° SSE
EXPRESS MD2 4.2 06:03:36 18° W 06:06:28 65° SSW 06:13:58 10° ESE
Meteor PRIRODA 4.5 06:05:58 10° N 06:09:15 29° WNW 06:12:32 10° SW
COSMOS 2455 3.2 06:03:51 10° SSW 06:09:50 71° ESE 06:15:52 10° NE
ATLAS CENTAUR R/B 2.6 06:08:18 17° W 06:09:56 22° WSW 06:13:00 10° S
RESURS DK-1 2.7 06:06:09 10° SW 06:10:07 41° NW 06:14:06 10° NNE
NOAA 6 4.0 06:05:53 10° NNE 06:11:02 87° WNW 06:16:10 10° SSW
ATLAS 2AS CENTAUR R/B 3.2 06:05:01 10° WSW 06:12:45 51° NW 06:20:18 10° NE
ERBS 3.7 06:11:05 16° NW 06:12:49 24° N 06:15:36 10° NE
EP 3 3.6 06:11:51 21° WSW 06:12:51 44° NW 06:14:43 10° NNE
H-2A R/B 3.1 06:09:57 10° N 06:13:40 42° WNW 06:17:20 10° SW
Cosmos 1500 Rocket 4.0 06:10:58 10° SW 06:14:57 36° WNW 06:19:00 10° N
Cosmos 1844 3.6 06:10:06 10° SW 06:15:38 66° WNW 06:21:14 10° NNE
Lacrosse 5 2.1 06:11:18 11° W 06:16:10 55° NNW 06:21:10 10° NE
CZ-4B DEB 4.2 06:10:43 10° NNE 06:16:12 79° WNW 06:21:39 10° SSW
Cosmos 1437 Rocket 3.0 06:12:46 10° NNW 06:16:23 44° W 06:19:58 10° SSW
Cosmos 372 Rocket 3.9 06:14:02 10° SSW 06:19:08 85° WNW 06:24:17 10° NNE
Okean O Rocket 2.0 06:15:20 10° NNE 06:19:48 69° ESE 06:24:13 10° S
Cosmos 1242 Rocket 3.5 06:17:51 10° N 06:21:25 48° ENE 06:24:58 10° SSE
Uosat 12 SS-18 rocket 4.5 06:16:46 11° NW 06:21:26 82° SW 06:27:13 10° SE
PAYLOAD B 4.2 06:17:05 10° NNE 06:22:38 84° WNW 06:28:08 10° SSW
Geosat 4.1 06:17:47 10° SE 06:22:49 83° ENE 06:27:53 10° NNW
SMAP 3.2 06:18:48 10° NNE 06:23:30 85° ESE 06:28:10 10° SSW
SJ 16-02 3.0 06:22:57 12° W 06:25:04 16° NW 06:27:46 10° N
USA 81 4.1 06:20:04 10° S 06:25:21 89° E 06:30:39 10° N
Cosmos 2263 Rocket 3.6 06:24:56 11° WNW 06:28:28 18° NW 06:32:21 10° N
ATLAS 5 CENTAUR R/B 2.9 06:28:16 10° SSW 06:32:08 43° ESE 06:36:29 10° NE
FALCON 9 DEB 3.0 06:29:13 10° W 06:32:24 63° NNW 06:35:37 10° ENE
FALCON 9 DEB 3.0 06:29:17 10° W 06:32:28 61° NNW 06:35:41 10° ENE
Sich 1 3.2 06:31:13 10° SSW 06:35:35 55° WNW 06:39:59 10° N
Cosmos 1898 Rocket 4.3 06:31:06 10° WSW 06:35:46 30° NW 06:40:30 10° N
Cosmos 2218 Rocket 4.3 06:29:33 10° S 06:35:47 75° E 06:41:59 10° NNE
CZ-2C R/B 2.7 06:31:14 10° S 06:36:41 66° WSW 06:42:02 10° NNW
AQUARIUS 4.1 06:32:43 10° NNE 06:37:15 80° WNW 06:41:44 10° SSW
H-2A R/B 2.6 06:34:00 10° N 06:37:42 44° WNW 06:41:21 10° SW
Envisat 3.2 06:32:53 10° N 06:37:47 49° WNW 06:42:39 10° SW
Cosmos 2366 rocket 4.3 06:33:51 10° S 06:40:09 77° E 06:46:27 10° NNE
CORIOLIS 4.2 06:37:08 10° NNE 06:42:39 88° WNW 06:48:05 10° SSW
USA 307 3.0 06:41:37 10° WNW 06:45:58 88° NNE 06:50:18 10° ESE
Cosmos 2082 Rocket 2.6 06:41:46 10° NNW 06:47:29 69° ENE 06:53:11 10° SE
CZ-4B R/B 3.1 06:42:10 10° NNE 06:47:31 74° WNW 06:52:55 10° SSW
NOAA 11 4.3 06:43:44 10° NNE 06:49:15 86° ESE 06:54:46 10° SSW
CZ-4 R/B 3.5 06:46:16 10° NNE 06:50:07 34° E 06:53:58 10° SSE
